METEOR 2-7 DEB, 28388

Orbit data source: Space-Track

METEOR 2-7 DEB, 28388 is space debris in LEO originally from a launch on Thu, 14 May 1981 UTC launched from the Plesetsk Missile And Space Complex (PKMTR). Debris objects in space refer to the collection of defunct objects orbiting the Earth. Examples of debris include non-operational satellites, rocket bodies, and fragments generated from explosions, collisions, or faulty payload assembly.

Loading next visibility...
METEOR 2-7 DEB details
Identifier
28388, 1981-043E
Orbit
LEO
Last TLE update2 days ago
Origin
Flag of CISKVR (CIS)
ManufacturerUnknown
MissionSpacecraft
Bus & MotorUnknown
MassUnknown
Launch date (UTC)
1981-05-14 (44 years ago)
Launch vehicleUnknown
Launch site
Plesetsk Missile And Space Complex (PKMTR)
Object type
Payload
Rocket body
Debris
Shape & HBRUnknown
Radar Cross SectionSmall (<0.1 m²)

Expand to show TLE details & history

TLE from 2 days ago
0 METEOR 2-7 DEB
1 28388U 81043E   24359.81466896  .00010189  00000-0  29269-2 0  9995
2 28388  81.2657 130.9328 0024310 220.6049 139.3329 14.44626645569843
Epoch: 2024-12-24T19:33Z
Definitive object data (Epoch: 2024-12-24T19:33:07.398Z)
Latitude0.00001°
Longitude103.83461°
Altitude759.352 km
Speed7.468 km/s
True Right ascension08h 43m 43s
True Declination0° 00' 00"
Sunlit
Object was in full shadow at TLE epoch
Visualization TLE readout
Latitude-12.35938°
Longitude100.06841°
Altitude760.169 km
Speed7.467 km/s
Apparent Right ascension06h 00m 37s
Apparent Declination-34° 37' 57"
Sunlit
Object is in full shadow
Visualization observer readout
Local Sidereal Time14:04:41
Azimuth256.922° W
Elevation-43.621°
Doppler factor1
Orbital elements
Apogee altitude757.685 km
Perigee altitude723.075 km
Semi-major axis7,118.517 km
Eccentricity0.002431
Inclination81.2657°
RAAN130.9328°
Arg. of periapsis220.6049°
True anomaly139.51402°
Mean anomaly139.3329°
Eccentric anomaly139.4235°
Mean motion3.61376 °/min
BSTAR0.0029269
Orbital period99.62 mins
Loading maneuver chart data...
Loading historical data...
Loading historical data...
Loading historical data...
Loading historical data...
Loading historical data...
Loading historical data...
Loading historical data...

METEOR 2-7 DEB Visibility forecast

Observer location: undefined°, undefined

Span
Click to sort rows by Start time (UTC) header in descending order
Start Az.
Max El. time (UTC)
Max El. Az.
Max El.
End time (UTC)
End Az.
9 mins2024-12-26 20:19:48.347Z0.748° NNE2024-12-26 20:23:48.347Z65.771° ENE40.295°2024-12-26 20:28:48.347Z157.758° S
8 mins2024-12-27 09:10:48.347Z165.64° S2024-12-27 09:14:48.347Z77.906° E38.308°2024-12-27 09:18:48.347Z20.775° NNE
4 mins2024-12-27 10:53:48.347Z269.648° W2024-12-27 10:55:48.347Z297.482° NW16.247°2024-12-27 10:57:48.347Z323.183° NNW
|